Location: Blangy-Tronville
(49.8790°N, 2.4226°E)
Time: 20:38:41
(UTC+00:00)

Cosmos 1812 - Pass Details

Date: 18 November 2025
Orbit: 340 x 350 km, 82.5° (Epoch: 10 December)

Event Time Altitude Azimuth Distance (km) Brightness Sun altitude
Rises 17:52:41 0° 196° (SSW) 2,233 6.3 -17.4°
Reaches altitude 10° 17:54:41 10° 201° (SSW) 1,382 5.2 -17.7°
Maximum altitude 17:57:39 59° 282° (WNW) 438 2.5 -18.2°
Enters shadow 17:59:23 22° 356° (N) 888 3.8 -18.5°
